Torna al catalogo

STARLINK-5177

AttivoComunicazioniVLEO
NORAD 54090·PAYLOAD·🇺🇸 United States

Lanciato Oct 20, 2022 da Cape Canaveral Space Force Station

Loading…

Prossimi Passaggi (prossime 24 ore)

TLE

AggiornatoSource: CelesTrak SupGP

Epoca: Sep 14, 2026, 21:44 UTC

1 54090C 22136AR  26257.90604167  .00347680  00000+0  14979-1 0  2572
2 54090  53.1611 203.3791 0001275  95.7965 103.5097 15.21885837    12

Traccia STARLINK-5177 in tempo reale con AllMySat

Download on the App Store